[[{"header":{"parameterUnit":"m.s-1","parameterCategory":2,"la1":30.2991,"la2":30.254,"lo1":-89.0895,"lo2":-89.0444,"dy":0.0017,"dx":0.0017,"nx":28,"ny":28,"refTime":"2023-10-24T09:00:00:Z","depth":"0","parameterNumber":2,"parameterNumberName":"U-component_of_CURRENTS"},"data":[0,0,0,0,0,0,0,0,0,0,0,0,0,0,0,0,0,0,0,0,0,0,0,0,0,0,0,0,0,0,0,0,0,0,0,0,0,0,0,0,0,0,0,0,0,0,0,0,0,0,0,0,0,0,0,0,0,0,-0.2785,-0.2785,0,-0.2767,-0.2767,-0.2766,-0.2784,-0.2785,-0.2786,-0.2787,-0.2657,-0.2653,-0.2648,0,0,0,0,0,0,0,0,0,0,0,0,0,-0.2736,-0.2737,-0.2785,-0.2785,-0.2785,-0.2767,-0.2767,-0.2766,-0.2783,-0.2785,-0.2786,-0.2787,-0.2659,-0.2653,-0.2648,0,0,0,0,0,0,0,0,0,0,0,0,0,-0.2738,-0.2737,-0.2785,-0.2795,-0.2796,-0.2767,-0.2767,-0.2766,-0.2783,-0.2785,-0.2786,-0.2788,-0.266,-0.2654,-0.2647,-0.2574,0,0,-0.2627,-0.2624,0,0,0,0,0,0,0,0,-0.2738,-0.2739,-0.2793,-0.2794,-0.2795,-0.2783,-0.2702,-0.2697,-0.2783,-0.2783,-0.2787,-0.2789,-0.269,-0.2681,-0.267,-0.2568,-0.2562,-0.2626,-0.2622,-0.2619,-0.2617,0,0,0,0,0,0,0,-0.2738,-0.2739,-0.2773,-0.2793,-0.2794,-0.2767,-0.2769,-0.2701,-0.2723,-0.2783,-0.2786,-0.279,-0.269,-0.2677,-0.2667,-0.256,-0.2626,-0.262,-0.2616,-0.2614,-0.2476,-0.2477,0,0,0,0,0,0,-0.2752,-0.274,-0.2774,-0.2773,-0.2774,-0.2767,-0.277,-0.2782,-0.2726,-0.2721,-0.2789,-0.2791,-0.2687,-0.2675,-0.2662,-0.2657,-0.2619,-0.2613,-0.2609,-0.2476,-0.2476,-0.2477,0,0,0,0,0,0,-0.2751,-0.2755,-0.2775,-0.2759,-0.276,-0.2768,-0.278,-0.2781,-0.2781,-0.2732,-0.2724,-0.2791,-0.2688,-0.2672,-0.2618,-0.2649,-0.261,-0.2604,-0.2476,-0.2476,-0.2477,-0.2591,0,0,0,0,0,0,-0.275,-0.2755,-0.2763,-0.276,-0.2762,-0.2794,-0.2779,-0.2779,-0.2782,-0.2785,-0.273,-0.272,-0.2688,-0.2629,-0.2612,-0.2639,-0.2599,-0.2475,-0.2476,-0.2477,-0.2587,-0.2596,-0.2603,0,0,0,0,0,-0.2748,-0.2764,-0.2763,-0.2767,-0.2774,-0.2796,-0.2794,-0.28,-0.2781,-0.28,-0.2747,-0.2722,-0.2622,-0.2623,-0.2603,-0.2629,-0.2475,-0.2476,-0.2476,-0.2584,-0.2594,-0.2603,0,0,0,0,0,0,-0.2734,-0.2767,-0.2767,-0.2788,-0.2805,-0.2801,-0.2804,-0.28,-0.2771,-0.2763,-0.2706,-0.2692,-0.2669,-0.2616,-0.2618,-0.2591,-0.2551,-0.2548,-0.2639,-0.2648,-0.2656,-0.2661,-0.2593,0,0,0,0,0,-0.2736,-0.2767,-0.2783,-0.28,-0.2804,-0.2798,-0.28,-0.2812,-0.279,-0.2781,-0.2741,-0.2689,-0.2652,-0.2625,-0.2587,-0.2544,-0.2485,-0.2553,-0.2561,-0.2569,-0.2558,-0.2512,-0.2516,-0.2479,-0.2479,-0.2479,0,0,-0.2735,-0.2756,-0.2771,-0.2801,-0.2799,-0.2827,-0.2803,-0.2822,-0.2846,-0.2763,-0.2759,-0.2713,-0.2647,-0.263,-0.2614,-0.259,-0.2544,-0.257,-0.2577,-0.2562,-0.2513,-0.2517,-0.252,-0.248,-0.248,-0.248,0,0,-0.2732,-0.2762,-0.2773,-0.2811,-0.2834,-0.2847,-0.2857,-0.2861,-0.2864,-0.2852,-0.2807,-0.2777,-0.2707,-0.2684,-0.2655,-0.2669,-0.2594,-0.2659,-0.2693,-0.265,-0.2653,-0.2655,-0.2572,-0.2566,-0.2656,-0.2657,-0.2657,0,-0.2713,-0.2744,-0.2779,-0.281,-0.2836,-0.286,-0.2878,-0.2899,-0.2891,-0.2862,-0.2872,-0.277,-0.2741,-0.2694,-0.2724,-0.2692,-0.2629,-0.2669,-0.2662,-0.2663,-0.2662,-0.2577,-0.2569,-0.2662,-0.2662,-0.2661,-0.266,0,-0.2729,-0.276,-0.2773,-0.2829,-0.287,-0.2899,-0.2944,-0.2956,-0.2953,-0.2948,-0.2908,-0.287,-0.2799,-0.2809,-0.2774,-0.2753,-0.2695,-0.2688,-0.2644,-0.2673,-0.2581,-0.257,-0.267,-0.2668,-0.2667,-0.2665,0,0,-0.2634,-0.2753,-0.2751,-0.2777,-0.2884,-0.2902,-0.2959,-0.2968,-0.2948,-0.2973,-0.2924,-0.2919,-0.2877,-0.2841,-0.2802,-0.2784,-0.2754,-0.2739,-0.2734,-0.2667,-0.2614,-0.2555,-0.2536,-0.2741,-0.274,-0.2739,-0.2546,0,-0.2606,-0.2659,-0.2738,-0.2792,-0.2818,-0.2895,-0.2934,-0.2966,-0.2969,-0.2941,-0.2924,-0.288,-0.2898,-0.2854,-0.2847,-0.2763,-0.273,-0.2804,-0.2585,-0.2578,-0.2532,-0.2525,-0.2491,-0.2315,-0.2535,-0.2533,-0.2532,0,-0.256,-0.2612,-0.2658,-0.2748,-0.2758,-0.2805,-0.2832,-0.2877,-0.2881,-0.2877,-0.2855,-0.2833,-0.2803,-0.2827,-0.2721,-0.2758,-0.2695,-0.2651,-0.2641,-0.2536,-0.2499,-0.2321,-0.2285,-0.2296,-0.2514,-0.2515,-0.2516,0,-0.2444,-0.2533,-0.2562,-0.2612,-0.2734,-0.2736,-0.278,-0.2817,-0.2807,-0.282,-0.2785,-0.277,-0.2719,-0.2682,-0.262,-0.2653,-0.2489,-0.2516,-0.2397,-0.239,-0.2291,-0.2278,-0.2248,-0.2442,-0.2442,-0.2443,-0.2443,0,-0.2382,-0.2391,-0.25,-0.2533,-0.2518,-0.2647,-0.2618,-0.2659,-0.2684,-0.2645,-0.2721,-0.2664,-0.2683,-0.2604,-0.2574,-0.2433,-0.2444,-0.2383,-0.2339,-0.2328,-0.232,-0.2268,-0.2287,-0.2436,-0.2437,-0.2439,-0.244,0,-0.2242,-0.2335,-0.2352,-0.2455,-0.2469,-0.2452,-0.2505,-0.2483,-0.2546,-0.2496,-0.2497,-0.2532,-0.2456,-0.2442,-0.235,-0.233,-0.2197,-0.2186,-0.2157,-0.2115,-0.204,-0.2067,-0.1902,-0.1846,-0.2017,-0.2014,-0.2012,0,-0.2176,-0.2183,-0.225,-0.2236,-0.227,-0.2276,-0.2275,-0.2376,-0.2371,-0.2395,-0.235,-0.2303,-0.226,-0.2121,-0.2106,-0.202,-0.2038,-0.192,-0.2006,-0.2014,-0.2011,-0.2018,-0.1985,-0.1903,-0.19,-0.1898,-0.1896,0,-0.2041,-0.2059,-0.2072,-0.2053,-0.2045,-0.2049,-0.2068,-0.2045,-0.2159,-0.2135,-0.2108,-0.2086,-0.2023,-0.1969,-0.1898,-0.1843,-0.1899,-0.1867,-0.1887,-0.1925,-0.1914,-0.1846,-0.2032,-0.1875,-0.1878,-0.1879,-0.188,-0.1881,-0.1906,-0.1854,-0.1879,-0.1843,-0.1837,-0.1834,-0.1795,-0.1833,-0.1818,-0.1812,-0.1882,-0.1866,-0.1898,-0.1822,-0.1762,-0.17,-0.1711,-0.1683,-0.1706,-0.1707,-0.1688,-0.1813,-0.1615,-0.1616,-0.1616,-0.1617,-0.1617,0,-0.1774,-0.1736,-0.1676,-0.1659,-0.1613,-0.1673,-0.1667,-0.1624,-0.1568,-0.1622,-0.1626,-0.1722,-0.1693,-0.1715,-0.1688,-0.1608,-0.1575,-0.1547,-0.1583,-0.1551,-0.1663,-0.17,-0.1499,-0.1499,-0.1499,-0.1499,-0.1499,-0.1499,-0.1709,-0.162,-0.1592,-0.1478,-0.1451,-0.1387,-0.1365,-0.13,-0.1315,-0.1307,-0.1401,-0.1546,-0.1611,-0.1768,-0.1695,-0.16,-0.1554,-0.1474,-0.1462,-0.1616,-0.1633,-0.1649,-0.1691,-0.149,-0.149,-0.1327,-0.1326,-0.1326]},{"header":{"parameterUnit":"m.s-1","parameterCategory":2,"la1":30.2991,"la2":30.254,"lo1":-89.0895,"lo2":-89.0444,"dy":0.0017,"dx":0.0017,"nx":28,"ny":28,"refTime":"2023-10-24T09:00:00:Z","depth":"0","parameterNumber":3,"parameterNumberName":"V-component_of_CURRENTS"},"data":[0,0,0,0,0,0,0,0,0,0,0,0,0,0,0,0,0,0,0,0,0,0,0,0,0,0,0,0,0,0,0,0,0,0,0,0,0,0,0,0,0,0,0,0,0,0,0,0,0,0,0,0,0,0,0,0,0,0,0.0197,0.0198,0,0.0323,0.0324,0.0326,0.0385,0.0385,0.0385,0.0385,0.0471,0.0473,0.0475,0,0,0,0,0,0,0,0,0,0,0,0,0,-0.004,-0.0035,0.0197,0.0198,0.02,0.0323,0.0325,0.0326,0.0385,0.0385,0.0385,0.0385,0.047,0.0473,0.0476,0,0,0,0,0,0,0,0,0,0,0,0,0,0.0072,-0.0034,0.0197,0.0245,0.025,0.0323,0.0325,0.0327,0.0385,0.0385,0.0385,0.0385,0.0469,0.0473,0.0476,0.0498,0,0,0.0487,0.0488,0,0,0,0,0,0,0,0,0.0065,0.008,0.0236,0.0242,0.0248,0.0339,0.0273,0.0382,0.0385,0.0333,0.0385,0.0385,0.0423,0.0431,0.0454,0.0502,0.0506,0.0487,0.0489,0.049,0.0491,0,0,0,0,0,0,0,0.0058,0.0075,0.0246,0.0238,0.0245,0.0244,0.026,0.0294,0.0375,0.0337,0.0342,0.0357,0.0426,0.0451,0.0456,0.0507,0.0487,0.049,0.0492,0.0493,0.0558,0.0558,0,0,0,0,0,0,0.0047,0.0068,0.0242,0.025,0.0156,0.0249,0.0267,0.0309,0.0376,0.0387,0.0357,0.036,0.0445,0.0452,0.0459,0.0476,0.049,0.0494,0.0496,0.0558,0.0558,0.0558,0,0,0,0,0,0,0.0042,0.0062,0.0237,0.016,0.0183,0.0253,0.03,0.0312,0.0337,0.0392,0.0402,0.0371,0.0445,0.0455,0.0481,0.048,0.0495,0.0498,0.0559,0.0558,0.0558,0.0516,0,0,0,0,0,0,0.0035,0.0061,0.008,0.0161,0.0187,0.0271,0.03,0.0314,0.0347,0.0351,0.0406,0.0415,0.0446,0.0475,0.0484,0.0485,0.0501,0.0559,0.0559,0.0558,0.0518,0.0514,0.0511,0,0,0,0,0,0.0027,0.0048,0.0081,0.0101,0.0215,0.0271,0.0284,0.0332,0.0347,0.0355,0.0388,0.0413,0.0477,0.0478,0.0488,0.049,0.056,0.0559,0.0558,0.052,0.0515,0.0511,0,0,0,0,0,0,-0.0043,0.0059,0.0096,0.015,0.0204,0.0281,0.0288,0.0329,0.0365,0.0362,0.0413,0.0423,0.0447,0.0471,0.047,0.0505,0.0521,0.0522,0.0488,0.0484,0.0481,0.047,0.0504,0,0,0,0,0,-0.0047,-0.0004,0.0087,0.0126,0.0147,0.0218,0.0244,0.0283,0.0329,0.0346,0.0387,0.0422,0.0453,0.0469,0.05,0.052,0.0551,0.0526,0.0522,0.0519,0.0517,0.0554,0.0554,0.0555,0.0555,0.0555,0,0,-0.0065,-0.0003,0.0021,0.0113,0.0153,0.0182,0.0233,0.0269,0.0295,0.0348,0.0378,0.0414,0.0455,0.0479,0.0491,0.0498,0.0537,0.0518,0.0515,0.0515,0.0553,0.0553,0.0553,0.0554,0.0554,0.0554,0,0,-0.0107,-0.0026,-0.0021,0.003,0.0094,0.0147,0.0156,0.0233,0.0263,0.0303,0.0343,0.0377,0.0427,0.0459,0.0481,0.0476,0.0518,0.0482,0.0458,0.0494,0.0495,0.0496,0.0543,0.0548,0.0479,0.0479,0.0479,0,-0.0144,-0.0095,-0.0016,0.0001,0.0039,0.0127,0.0137,0.0185,0.0262,0.0284,0.03,0.0383,0.0419,0.0453,0.0451,0.047,0.0498,0.0471,0.049,0.0492,0.0493,0.0542,0.0548,0.0477,0.0477,0.0478,0.0478,0,-0.0178,-0.0138,-0.0134,-0.007,-0.0023,0.0004,0.0089,0.0127,0.0178,0.0231,0.0279,0.0336,0.0383,0.0401,0.0427,0.0454,0.0475,0.0483,0.0501,0.0491,0.0542,0.055,0.0474,0.0475,0.0475,0.0476,0,0,-0.0268,-0.018,-0.0177,-0.0152,-0.0051,-0.0014,0.0027,0.0096,0.0128,0.0193,0.0231,0.0288,0.0328,0.0354,0.0396,0.043,0.0471,0.0455,0.0458,0.0502,0.0559,0.0498,0.0501,0.0481,0.0482,0.0482,0.0595,0,-0.0326,-0.0318,-0.024,-0.0213,-0.0198,-0.0086,-0.0044,0.0033,0.0103,0.0161,0.0227,0.028,0.0308,0.0338,0.0371,0.0458,0.0487,0.044,0.0563,0.0567,0.0513,0.0505,0.0519,0.0613,0.0602,0.0603,0.0604,0,-0.0382,-0.0366,-0.0362,-0.0268,-0.025,-0.0212,-0.0111,-0.0058,0.0046,0.0099,0.0161,0.023,0.0302,0.032,0.0444,0.0413,0.0472,0.0532,0.0538,0.0498,0.0517,0.062,0.0627,0.0749,0.0616,0.0615,0.0614,0,-0.0481,-0.0434,-0.0432,-0.0399,-0.0295,-0.0267,-0.0203,-0.0094,-0.0031,0.0064,0.0123,0.0206,0.0278,0.0351,0.0471,0.0464,0.0604,0.0614,0.0612,0.0611,0.0654,0.0653,0.0791,0.0676,0.0676,0.0676,0.0675,0,-0.0543,-0.0533,-0.0482,-0.0471,-0.0446,-0.0349,-0.0291,-0.0213,-0.0102,-0.0024,0.008,0.0155,0.029,0.0392,0.0469,0.0563,0.0603,0.0606,0.0628,0.0639,0.0634,0.0766,0.0818,0.068,0.0679,0.0678,0.0677,0,-0.0604,-0.0586,-0.0568,-0.0504,-0.0485,-0.0459,-0.0329,-0.0273,-0.017,-0.0065,-0.0029,0.014,0.0264,0.0386,0.0534,0.0573,0.0718,0.0677,0.068,0.0696,0.0765,0.0812,0.0948,0.0987,0.0694,0.0693,0.0692,0,-0.0614,-0.0624,-0.0594,-0.0584,-0.0546,-0.0497,-0.0442,-0.0327,-0.025,-0.0072,-0.002,0.0126,0.0208,0.0394,0.0515,0.0628,0.0714,0.069,0.0656,0.0763,0.0836,0.0876,0.0903,0.0726,0.0725,0.0725,0.0724,0,-0.0605,-0.0605,-0.0588,-0.0597,-0.0565,-0.0518,-0.0437,-0.04,-0.0249,-0.0183,-0.007,-0.0007,0.02,0.034,0.049,0.0556,0.0761,0.0679,0.0814,0.0874,0.0911,0.096,0.0669,0.0721,0.0721,0.0721,0.0721,0.0722,-0.0556,-0.056,-0.0554,-0.0554,-0.0549,-0.0524,-0.0498,-0.0427,-0.0364,-0.0259,-0.0168,-0.0079,0.0209,0.0413,0.0518,0.0754,0.073,0.0807,0.0863,0.09,0.0906,0.0581,0.0622,0.0622,0.0622,0.0621,0.0621,0,-0.0444,-0.0472,-0.0491,-0.05,-0.0512,-0.0515,-0.0467,-0.0453,-0.0431,-0.0358,-0.0305,-0.0037,0.0222,0.0509,0.0857,0.0967,0.102,0.1025,0.1142,0.1162,0.0917,0.0883,0.0953,0.0953,0.0953,0.0953,0.0953,0.0953,-0.0369,-0.0363,-0.0408,-0.0441,-0.0477,-0.0498,-0.0497,-0.0507,-0.0475,-0.0407,-0.0291,-0.0192,0.0259,0.092,0.1263,0.1269,0.141,0.1369,0.143,0.1325,0.1311,0.1298,0.1281,0.1433,0.1434,0.1678,0.1681,0.1683]}],[{"header":{"parameterUnit":"m.s-1","parameterCategory":2,"la1":30.2991,"la2":30.254,"lo1":-89.0895,"lo2":-89.0444,"dy":0.0017,"dx":0.0017,"nx":28,"ny":28,"refTime":"2023-10-24T09:00:00:Z","depth":"2","parameterNumber":2,"parameterNumberName":"U-component_of_CURRENTS"},"data":[0,0,0,0,0,0,0,0,0,0,0,0,0,0,0,0,0,0,0,0,0,0,0,0,0,0,0,0,0,0,0,0,0,0,0,0,0,0,0,0,0,0,0,0,0,0,0,0,0,0,0,0,0,0,0,0,0,0,-0.2,-0.1998,0,-0.1841,-0.1839,-0.1837,-0.1795,-0.1796,-0.1797,-0.1798,-0.1775,-0.1773,-0.1771,0,0,0,0,0,0,0,0,0,0,0,0,0,-0.1894,-0.1899,-0.2,-0.1998,-0.1996,-0.1841,-0.1839,-0.1837,-0.1795,-0.1796,-0.1797,-0.1799,-0.1775,-0.1773,-0.1771,0,0,0,0,0,0,0,0,0,0,0,0,0,-0.1858,-0.19,-0.2,-0.1957,-0.1952,-0.1842,-0.1839,-0.1836,-0.1795,-0.1796,-0.1798,-0.1799,-0.1776,-0.1773,-0.1771,-0.1725,0,0,-0.1764,-0.1763,0,0,0,0,0,0,0,0,-0.1861,-0.1863,-0.1965,-0.196,-0.1954,-0.184,-0.1793,-0.1806,-0.1794,-0.1853,-0.1798,-0.18,-0.1808,-0.1803,-0.1767,-0.1724,-0.1723,-0.1764,-0.1762,-0.1761,-0.176,0,0,0,0,0,0,0,-0.1864,-0.1867,-0.1936,-0.1963,-0.1956,-0.1818,-0.1818,-0.1792,-0.1826,-0.1848,-0.1845,-0.1828,-0.1806,-0.1769,-0.1767,-0.1723,-0.1764,-0.1762,-0.176,-0.1759,-0.1737,-0.1738,0,0,0,0,0,0,-0.1904,-0.1872,-0.1941,-0.1931,-0.1911,-0.182,-0.182,-0.1874,-0.1823,-0.1816,-0.1827,-0.1827,-0.1773,-0.1769,-0.1766,-0.1849,-0.1761,-0.1759,-0.1758,-0.1736,-0.1737,-0.1738,0,0,0,0,0,0,-0.1904,-0.1915,-0.1948,-0.1893,-0.1888,-0.1823,-0.1882,-0.187,-0.1873,-0.1806,-0.1801,-0.1847,-0.1774,-0.1769,-0.1788,-0.1843,-0.1758,-0.1756,-0.1735,-0.1736,-0.1738,-0.1926,0,0,0,0,0,0,-0.1903,-0.1918,-0.1968,-0.1899,-0.1893,-0.1901,-0.188,-0.1866,-0.1857,-0.1857,-0.1821,-0.1817,-0.1774,-0.1792,-0.1786,-0.1838,-0.1754,-0.1734,-0.1736,-0.1737,-0.1919,-0.1933,-0.1946,0,0,0,0,0,-0.1901,-0.1923,-0.1973,-0.198,-0.1969,-0.1901,-0.1884,-0.1838,-0.1858,-0.185,-0.1851,-0.182,-0.1797,-0.1791,-0.1783,-0.1837,-0.1733,-0.1735,-0.1737,-0.1912,-0.193,-0.1946,0,0,0,0,0,0,-0.1902,-0.192,-0.1972,-0.201,-0.1985,-0.1895,-0.1874,-0.1865,-0.1853,-0.1875,-0.1836,-0.1832,-0.1864,-0.1815,-0.181,-0.1828,-0.1757,-0.1758,-0.1893,-0.1909,-0.1923,-0.1949,-0.1752,0,0,0,0,0,-0.1938,-0.1968,-0.1967,-0.1999,-0.2004,-0.1965,-0.1937,-0.1917,-0.1889,-0.1886,-0.1881,-0.1866,-0.1852,-0.1859,-0.1827,-0.1846,-0.178,-0.1868,-0.1882,-0.1895,-0.1907,-0.1864,-0.1876,-0.1744,-0.1744,-0.1744,0,0,-0.1974,-0.1959,-0.2001,-0.2,-0.1987,-0.2018,-0.1952,-0.1925,-0.1956,-0.1888,-0.1949,-0.1917,-0.1865,-0.1886,-0.1895,-0.1866,-0.1892,-0.1897,-0.1909,-0.1914,-0.1867,-0.1881,-0.1892,-0.1746,-0.1745,-0.1745,0,0,-0.1967,-0.204,-0.2053,-0.2066,-0.2045,-0.2034,-0.2053,-0.2024,-0.202,-0.2043,-0.2022,-0.2038,-0.2005,-0.2,-0.1984,-0.2052,-0.1963,-0.2034,-0.2139,-0.21,-0.2111,-0.212,-0.2041,-0.2042,-0.2048,-0.2048,-0.2049,0,-0.1989,-0.2034,-0.2037,-0.2054,-0.2066,-0.2076,-0.2104,-0.2116,-0.2101,-0.2099,-0.2087,-0.208,-0.206,-0.2095,-0.2127,-0.2092,-0.2028,-0.2093,-0.2122,-0.2129,-0.2135,-0.2052,-0.205,-0.2058,-0.2057,-0.2056,-0.2055,0,-0.2014,-0.2067,-0.2067,-0.214,-0.2158,-0.2164,-0.2213,-0.2261,-0.2272,-0.2255,-0.2276,-0.2247,-0.2228,-0.2242,-0.2212,-0.2258,-0.2184,-0.2144,-0.2092,-0.2161,-0.2067,-0.2062,-0.2071,-0.2068,-0.2065,-0.2062,0,0,-0.1993,-0.2065,-0.2073,-0.2113,-0.2197,-0.2196,-0.2315,-0.2345,-0.2382,-0.2412,-0.2407,-0.2451,-0.2415,-0.2396,-0.2372,-0.2376,-0.2381,-0.2298,-0.2291,-0.2241,-0.2258,-0.2176,-0.2161,-0.2346,-0.2346,-0.2347,-0.2171,0,-0.1994,-0.2025,-0.2066,-0.2156,-0.2199,-0.2286,-0.2364,-0.2424,-0.2438,-0.2453,-0.2459,-0.2435,-0.2477,-0.2446,-0.2478,-0.2372,-0.2377,-0.243,-0.2179,-0.2171,-0.2109,-0.2157,-0.2064,-0.1898,-0.2165,-0.2164,-0.2164,0,-0.1998,-0.2008,-0.2069,-0.214,-0.2166,-0.2235,-0.234,-0.2395,-0.2464,-0.2464,-0.2507,-0.2467,-0.2503,-0.249,-0.2442,-0.2465,-0.2394,-0.2336,-0.2326,-0.2184,-0.2082,-0.1871,-0.1878,-0.2154,-0.2155,-0.2155,-0.2156,0,-0.1938,-0.2002,-0.2027,-0.2078,-0.219,-0.2228,-0.2284,-0.2386,-0.2384,-0.2452,-0.2426,-0.2475,-0.2413,-0.2409,-0.2327,-0.2364,-0.2212,-0.2223,-0.2098,-0.2087,-0.1926,-0.1901,-0.2196,-0.2196,-0.2197,-0.2197,-0.2198,0,-0.1906,-0.193,-0.2002,-0.2038,-0.2057,-0.2163,-0.2171,-0.227,-0.2313,-0.2278,-0.2394,-0.2352,-0.2385,-0.2303,-0.2288,-0.2158,-0.2175,-0.2121,-0.2051,-0.1984,-0.1969,-0.2124,-0.2118,-0.2191,-0.2192,-0.2193,-0.2194,0,-0.1849,-0.1904,-0.1924,-0.2009,-0.2029,-0.2045,-0.2081,-0.2082,-0.2172,-0.2132,-0.2137,-0.2193,-0.2131,-0.2135,-0.2045,-0.2037,-0.1958,-0.1906,-0.1814,-0.174,-0.1872,-0.1878,-0.1767,-0.1763,-0.176,-0.1757,-0.1754,0,-0.1813,-0.1824,-0.1876,-0.1867,-0.1893,-0.1914,-0.1916,-0.2008,-0.1997,-0.2016,-0.1969,-0.1927,-0.1898,-0.1776,-0.1775,-0.1724,-0.1799,-0.157,-0.1671,-0.1893,-0.1835,-0.1846,-0.1856,-0.1508,-0.1504,-0.15,-0.1498,0,-0.1734,-0.1752,-0.1766,-0.1749,-0.1739,-0.1719,-0.1725,-0.1687,-0.1759,-0.1768,-0.1727,-0.1702,-0.1641,-0.1579,-0.1529,-0.149,-0.1594,-0.1498,-0.1714,-0.1651,-0.164,-0.1587,-0.1606,-0.1467,-0.147,-0.1472,-0.1474,-0.1475,-0.1645,-0.1621,-0.1631,-0.1592,-0.1578,-0.1516,-0.1454,-0.1477,-0.1451,-0.1447,-0.1482,-0.1467,-0.1461,-0.1391,-0.1312,-0.1272,-0.1393,-0.1352,-0.1366,-0.1383,-0.1405,-0.1391,-0.1172,-0.1173,-0.1174,-0.1175,-0.1176,0,-0.1432,-0.1467,-0.1468,-0.1417,-0.1313,-0.1382,-0.1319,-0.1257,-0.1206,-0.1264,-0.1282,-0.1178,-0.1172,-0.1174,-0.1103,-0.1077,-0.1098,-0.1006,-0.1066,-0.1096,-0.1123,-0.1136,-0.0828,-0.0827,-0.0826,-0.0825,0,0,-0.1322,-0.1243,-0.1262,-0.113,-0.1118,-0.1011,-0.0946,-0.093,-0.0954,-0.0938,-0.0986,-0.1139,-0.1159,-0.1018,-0.0971,-0.0898,-0.098,-0.084,-0.1121,-0.1222,-0.1248,-0.1322,-0.1375,0,0,0,0,0]},{"header":{"parameterUnit":"m.s-1","parameterCategory":2,"la1":30.2991,"la2":30.254,"lo1":-89.0895,"lo2":-89.0444,"dy":0.0017,"dx":0.0017,"nx":28,"ny":28,"refTime":"2023-10-24T09:00:00:Z","depth":"2","parameterNumber":3,"parameterNumberName":"V-component_of_CURRENTS"},"data":[0,0,0,0,0,0,0,0,0,0,0,0,0,0,0,0,0,0,0,0,0,0,0,0,0,0,0,0,0,0,0,0,0,0,0,0,0,0,0,0,0,0,0,0,0,0,0,0,0,0,0,0,0,0,0,0,0,0,-0.0009,-0.0009,0,0.0066,0.0067,0.0068,0.012,0.012,0.012,0.0119,0.0233,0.0236,0.0239,0,0,0,0,0,0,0,0,0,0,0,0,0,-0.0214,-0.0209,-0.0009,-0.0009,-0.0008,0.0065,0.0067,0.0069,0.012,0.012,0.0119,0.0119,0.0232,0.0235,0.0239,0,0,0,0,0,0,0,0,0,0,0,0,0,-0.0124,-0.0207,-0.0009,0.0021,0.0024,0.0065,0.0067,0.0069,0.012,0.012,0.0119,0.0119,0.023,0.0235,0.024,0.0277,0,0,0.0255,0.0257,0,0,0,0,0,0,0,0,-0.0129,-0.0115,0.0016,0.0019,0.0022,0.0077,0.0036,0.0138,0.012,0.0091,0.0119,0.0119,0.018,0.0189,0.0213,0.0282,0.0287,0.0255,0.0258,0.026,0.0261,0,0,0,0,0,0,0,-0.0135,-0.0119,0.0027,0.0016,0.002,-0.0006,0.0008,0.0056,0.0142,0.0093,0.0096,0.0093,0.0183,0.0208,0.0216,0.0289,0.0255,0.0259,0.0262,0.0264,0.0418,0.0419,0,0,0,0,0,0,-0.0151,-0.0124,0.0025,0.0029,-0.0063,-0.0002,0.0014,0.0065,0.0141,0.015,0.0093,0.0095,0.02,0.021,0.022,0.029,0.026,0.0265,0.0267,0.0417,0.0418,0.0419,0,0,0,0,0,0,-0.0154,-0.0136,0.0022,-0.0055,-0.0038,0.0002,0.0059,0.0067,0.0105,0.0139,0.0151,0.0124,0.02,0.0213,0.0276,0.0294,0.0267,0.0271,0.0415,0.0417,0.0419,0.0416,0,0,0,0,0,0,-0.0159,-0.0136,-0.0106,-0.0054,-0.0034,0.0043,0.0059,0.0068,0.01,0.0104,0.0169,0.0178,0.0201,0.0269,0.0281,0.03,0.0275,0.0414,0.0416,0.0418,0.0415,0.0417,0.042,0,0,0,0,0,-0.0166,-0.0155,-0.0104,-0.0087,0.0009,0.0042,0.0051,0.0079,0.0102,0.0116,0.0169,0.0177,0.0291,0.0275,0.0288,0.0309,0.0413,0.0415,0.0418,0.0413,0.0417,0.042,0,0,0,0,0,0,-0.0224,-0.0147,-0.0091,-0.0049,0.0002,0.0048,0.0048,0.009,0.0146,0.015,0.0201,0.0214,0.0273,0.0296,0.0277,0.0359,0.035,0.0356,0.0342,0.0346,0.0348,0.0317,0.0279,0,0,0,0,0,-0.0218,-0.0184,-0.0107,-0.0068,-0.0047,0.0017,0.0035,0.0064,0.0113,0.0138,0.0195,0.0248,0.0294,0.0323,0.0365,0.0419,0.0432,0.0439,0.0442,0.0444,0.0428,0.0464,0.0468,0.0428,0.0428,0.0428,0,0,-0.0218,-0.0184,-0.0152,-0.0079,-0.0037,0.0004,0.0029,0.0053,0.0099,0.0142,0.0221,0.0262,0.0311,0.0366,0.0393,0.0388,0.0468,0.0447,0.0448,0.0432,0.0467,0.0471,0.0474,0.043,0.0429,0.0429,0,0,-0.0253,-0.0174,-0.0168,-0.0124,-0.0077,-0.0024,-0.001,0.0063,0.0103,0.0178,0.022,0.0274,0.0357,0.0395,0.0422,0.0469,0.048,0.0482,0.0473,0.0509,0.0511,0.0514,0.0554,0.056,0.0483,0.0483,0.0483,0,-0.0264,-0.0222,-0.0164,-0.0152,-0.0126,-0.0029,-0.001,0.0058,0.0148,0.0178,0.0197,0.0319,0.0369,0.0428,0.0443,0.0474,0.049,0.0456,0.051,0.0513,0.0515,0.0555,0.0562,0.0484,0.0484,0.0484,0.0484,0,-0.0283,-0.0247,-0.0249,-0.0173,-0.0134,-0.0109,-0.001,0.006,0.0129,0.0185,0.0259,0.0329,0.0389,0.0423,0.045,0.0497,0.0503,0.0508,0.0495,0.0519,0.056,0.0567,0.0484,0.0484,0.0484,0.0484,0,0,-0.032,-0.0271,-0.027,-0.0243,-0.0148,-0.0117,-0.0027,0.0062,0.0115,0.0207,0.0257,0.0349,0.0374,0.0406,0.0451,0.049,0.0544,0.0502,0.0503,0.0529,0.0621,0.0546,0.0547,0.0551,0.0552,0.0553,0.0648,0,-0.035,-0.0357,-0.0312,-0.0269,-0.0251,-0.0138,-0.007,0.0026,0.0118,0.0203,0.0276,0.0339,0.0373,0.0398,0.0442,0.0523,0.0559,0.0517,0.0604,0.0606,0.0526,0.0551,0.0527,0.0601,0.0655,0.0656,0.0657,0,-0.0381,-0.0388,-0.0385,-0.0326,-0.0306,-0.0255,-0.0133,-0.006,0.0079,0.0138,0.0214,0.0281,0.0371,0.0386,0.0514,0.0483,0.054,0.0597,0.0602,0.0529,0.0543,0.0585,0.0612,0.0669,0.0668,0.0667,0.0666,0,-0.0453,-0.0429,-0.0436,-0.0409,-0.0322,-0.0293,-0.0226,-0.0095,-0.0028,0.0097,0.0156,0.0253,0.0325,0.0401,0.0524,0.0521,0.0653,0.0668,0.0653,0.065,0.0643,0.0635,0.0731,0.0731,0.0731,0.0731,0.073,0,-0.05,-0.0499,-0.0473,-0.0465,-0.0449,-0.0374,-0.0315,-0.0222,-0.0106,-0.0028,0.0099,0.0175,0.033,0.0434,0.0517,0.0602,0.0648,0.0645,0.0662,0.0642,0.0634,0.0696,0.0691,0.0734,0.0733,0.0733,0.0732,0,-0.055,-0.0542,-0.0538,-0.0494,-0.048,-0.0462,-0.036,-0.0299,-0.0196,-0.0083,-0.0045,0.0137,0.0261,0.0398,0.0549,0.0596,0.0682,0.0694,0.0657,0.0664,0.0663,0.0657,0.0697,0.0695,0.0693,0.0692,0.069,0,-0.0568,-0.058,-0.0561,-0.0554,-0.0532,-0.0496,-0.045,-0.035,-0.0276,-0.0107,-0.0054,0.009,0.0181,0.0365,0.0493,0.0608,0.0638,0.0636,0.061,0.0643,0.0657,0.0654,0.065,0.0631,0.0629,0.0628,0.0627,0,-0.0579,-0.0575,-0.0566,-0.0574,-0.055,-0.0516,-0.0454,-0.0424,-0.0289,-0.0219,-0.0118,-0.0056,0.0143,0.0269,0.0421,0.0484,0.0611,0.0607,0.0682,0.0609,0.0579,0.0593,0.0592,0.0615,0.0616,0.0617,0.0618,0.0618,-0.0559,-0.0559,-0.0549,-0.0557,-0.0548,-0.0531,-0.0517,-0.045,-0.0396,-0.029,-0.0216,-0.0122,0.0061,0.0238,0.0372,0.0507,0.0508,0.0545,0.0551,0.0558,0.0499,0.0464,0.047,0.047,0.047,0.0471,0.0471,0,-0.0555,-0.0522,-0.0516,-0.0526,-0.0546,-0.0537,-0.05,-0.0484,-0.0459,-0.0376,-0.0322,-0.0171,-0.0015,0.0174,0.0369,0.0469,0.0506,0.0481,0.053,0.0538,0.0547,0.049,0.0458,0.0458,0.0458,0.0459,0,0,-0.0533,-0.0531,-0.0537,-0.0536,-0.0544,-0.0558,-0.0564,-0.0544,-0.0499,-0.0462,-0.0398,-0.0278,-0.0048,0.0094,0.0255,0.0361,0.0413,0.036,0.0354,0.0399,0.0406,0.0561,0.0477,0,0,0,0,0]}],[{"header":{"parameterUnit":"m.s-1","parameterCategory":2,"la1":30.2991,"la2":30.254,"lo1":-89.0895,"lo2":-89.0444,"dy":0.0017,"dx":0.0017,"nx":28,"ny":28,"refTime":"2023-10-24T09:00:00:Z","depth":"4","parameterNumber":2,"parameterNumberName":"U-component_of_CURRENTS"},"data":[0,0,0,0,0,0,0,0,0,0,0,0,0,0,0,0,0,0,0,0,0,0,0,0,0,0,0,0,0,0,0,0,0,0,0,0,0,0,0,0,0,0,0,0,0,0,0,0,0,0,0,0,0,0,0,0,0,0,-0.0356,-0.0356,0,-0.0427,-0.0428,-0.0429,-0.0473,-0.0473,-0.0473,-0.0473,-0.0555,-0.0557,-0.0559,0,0,0,0,0,0,0,0,0,0,0,0,0,-0.0444,-0.0441,-0.0356,-0.0356,-0.0357,-0.0427,-0.0428,-0.043,-0.0473,-0.0473,-0.0473,-0.0473,-0.0554,-0.0557,-0.056,0,0,0,0,0,0,0,0,0,0,0,0,0,-0.045,-0.044,-0.0355,-0.0386,-0.0389,-0.0427,-0.0428,-0.043,-0.0473,-0.0473,-0.0473,-0.0473,-0.0554,-0.0557,-0.056,-0.0578,0,0,-0.057,-0.0571,0,0,0,0,0,0,0,0,-0.045,-0.0447,-0.0381,-0.0384,-0.0388,-0.044,-0.049,-0.0479,-0.0473,-0.0443,-0.0473,-0.0473,-0.0516,-0.0523,-0.0538,-0.0581,-0.0585,-0.057,-0.0572,-0.0573,-0.0574,0,0,0,0,0,0,0,-0.0449,-0.0446,-0.0386,-0.0381,-0.0386,-0.0461,-0.046,-0.0489,-0.048,-0.0445,-0.0448,-0.0454,-0.0519,-0.0535,-0.054,-0.0586,-0.057,-0.0573,-0.0575,-0.0576,-0.0684,-0.0685,0,0,0,0,0,0,-0.0426,-0.0443,-0.0383,-0.0388,-0.0418,-0.0458,-0.0458,-0.0424,-0.0479,-0.0487,-0.0454,-0.0455,-0.0529,-0.0537,-0.0543,-0.06,-0.0573,-0.0576,-0.0578,-0.0683,-0.0684,-0.0685,0,0,0,0,0,0,-0.0427,-0.0418,-0.038,-0.0419,-0.0419,-0.0454,-0.0418,-0.0426,-0.0449,-0.0485,-0.0493,-0.047,-0.053,-0.0539,-0.0582,-0.0603,-0.0578,-0.058,-0.0682,-0.0683,-0.0685,-0.0693,0,0,0,0,0,0,-0.0429,-0.0417,-0.0394,-0.0416,-0.0416,-0.0411,-0.0418,-0.0427,-0.0451,-0.0454,-0.0502,-0.0509,-0.0531,-0.0578,-0.0586,-0.0607,-0.0583,-0.0681,-0.0682,-0.0684,-0.0692,-0.0695,-0.0698,0,0,0,0,0,-0.0431,-0.0397,-0.0391,-0.0385,-0.0377,-0.0412,-0.042,-0.0448,-0.0451,-0.0468,-0.05,-0.0508,-0.0594,-0.0581,-0.059,-0.0612,-0.068,-0.0682,-0.0684,-0.0691,-0.0694,-0.0698,0,0,0,0,0,0,-0.0438,-0.0399,-0.0393,-0.0351,-0.0382,-0.0418,-0.043,-0.045,-0.0488,-0.0489,-0.0522,-0.0532,-0.0578,-0.0593,-0.0578,-0.0649,-0.0638,-0.0642,-0.064,-0.0644,-0.0646,-0.0646,-0.0586,0,0,0,0,0,-0.0421,-0.0378,-0.0383,-0.036,-0.0363,-0.0397,-0.0415,-0.0437,-0.047,-0.0487,-0.0524,-0.0559,-0.0593,-0.0616,-0.0648,-0.0688,-0.0686,-0.0708,-0.0711,-0.0713,-0.0719,-0.0776,-0.0785,-0.0692,-0.0692,-0.0692,0,0,-0.0418,-0.0395,-0.0372,-0.0359,-0.0377,-0.0399,-0.0409,-0.0435,-0.0466,-0.0489,-0.0543,-0.057,-0.0605,-0.0652,-0.0673,-0.0669,-0.0723,-0.0716,-0.0717,-0.0723,-0.078,-0.0789,-0.0797,-0.0694,-0.0693,-0.0693,0,0,-0.0451,-0.0369,-0.038,-0.0381,-0.0404,-0.0405,-0.0411,-0.0451,-0.0477,-0.0529,-0.0551,-0.0592,-0.065,-0.0683,-0.0703,-0.0741,-0.0735,-0.0749,-0.0768,-0.0823,-0.0831,-0.0839,-0.0776,-0.0778,-0.0753,-0.0753,-0.0753,0,-0.0477,-0.0451,-0.04,-0.0424,-0.0418,-0.0404,-0.0436,-0.0455,-0.0515,-0.0535,-0.0548,-0.0639,-0.0667,-0.0722,-0.0738,-0.0749,-0.0743,-0.075,-0.0827,-0.0835,-0.0843,-0.0777,-0.0779,-0.0754,-0.0753,-0.0753,-0.0753,0,-0.053,-0.0507,-0.0509,-0.0503,-0.0493,-0.0504,-0.0501,-0.0514,-0.0526,-0.0558,-0.0621,-0.0672,-0.0728,-0.0742,-0.0755,-0.082,-0.0779,-0.0821,-0.0816,-0.0852,-0.078,-0.0782,-0.0755,-0.0754,-0.0754,-0.0754,0,0,-0.0585,-0.0562,-0.0559,-0.0563,-0.052,-0.0526,-0.0526,-0.0541,-0.0548,-0.0612,-0.0648,-0.0727,-0.0752,-0.0778,-0.0805,-0.0853,-0.0875,-0.0862,-0.0864,-0.0792,-0.0916,-0.0904,-0.0904,-0.0945,-0.0947,-0.0949,-0.0816,0,-0.0659,-0.0703,-0.0661,-0.0676,-0.0672,-0.0612,-0.0616,-0.0613,-0.0606,-0.0627,-0.0677,-0.0721,-0.0766,-0.0789,-0.0853,-0.0877,-0.0894,-0.0901,-0.0898,-0.0895,-0.088,-0.0913,-0.0956,-0.0818,-0.0818,-0.0818,-0.0819,0,-0.0708,-0.0722,-0.076,-0.0728,-0.0725,-0.0734,-0.0672,-0.0691,-0.0676,-0.0689,-0.0726,-0.0726,-0.0787,-0.0826,-0.09,-0.0906,-0.0913,-0.0925,-0.0922,-0.092,-0.0893,-0.0794,-0.0822,-0.0822,-0.0822,-0.0821,-0.0821,0,-0.0726,-0.0763,-0.0786,-0.0773,-0.0756,-0.0766,-0.0759,-0.0718,-0.0708,-0.072,-0.0689,-0.0767,-0.0787,-0.0855,-0.087,-0.089,-0.092,-0.0948,-0.0922,-0.0915,-0.0956,-0.0951,-0.0998,-0.0998,-0.0998,-0.0999,-0.0999,0,-0.0752,-0.0771,-0.081,-0.0813,-0.0818,-0.0813,-0.0803,-0.0796,-0.078,-0.0754,-0.0746,-0.0734,-0.081,-0.0804,-0.0848,-0.0883,-0.0908,-0.0921,-0.0913,-0.0949,-0.0945,-0.0951,-0.0948,-0.0994,-0.0995,-0.0996,-0.0997,0,-0.0728,-0.0773,-0.0785,-0.0813,-0.0816,-0.0816,-0.0798,-0.0775,-0.0789,-0.074,-0.0733,-0.0709,-0.0735,-0.0745,-0.0811,-0.0836,-0.0873,-0.0871,-0.0817,-0.0807,-0.081,-0.0808,-0.0816,-0.0815,-0.0815,-0.0814,-0.0814,0,-0.0717,-0.0721,-0.0746,-0.0735,-0.075,-0.0758,-0.0728,-0.0765,-0.0732,-0.0725,-0.069,-0.0677,-0.0665,-0.071,-0.0777,-0.0804,-0.0836,-0.0788,-0.0892,-0.0816,-0.0806,-0.0806,-0.0805,-0.0812,-0.0812,-0.0812,-0.0812,0,-0.0638,-0.0651,-0.0638,-0.0631,-0.0624,-0.0613,-0.0609,-0.0606,-0.064,-0.0634,-0.0644,-0.0648,-0.0656,-0.0717,-0.0721,-0.0766,-0.0799,-0.0782,-0.0784,-0.0882,-0.0812,-0.0803,-0.0803,-0.081,-0.081,-0.081,-0.081,0,-0.0528,-0.0495,-0.0482,-0.0473,-0.046,-0.0474,-0.051,-0.0517,-0.0527,-0.0567,-0.0583,-0.0617,-0.0655,-0.0694,-0.0722,-0.0745,-0.0771,-0.0767,-0.0771,-0.0774,-0.0838,-0.0748,-0.0722,0,0,0,0,0,-0.0403,-0.036,-0.0325,-0.0322,-0.0321,-0.035,-0.0394,-0.0448,-0.051,-0.0508,-0.0564,-0.0586,-0.0647,-0.0675,-0.0701,-0.0705,-0.0756,-0.0731,-0.0749,-0.0797,-0.08,-0.0889,0,0,0,0,0,0,-0.0305,-0.0258,-0.027,-0.0197,-0.0194,-0.0205,-0.0262,-0.0335,-0.0368,-0.0445,-0.0491,-0.0541,-0.0609,-0.0613,-0.0675,-0.0686,-0.0692,-0.0771,-0.0771,-0.0796,-0.0798,-0.08,-0.0893,0,0,0,0,0]},{"header":{"parameterUnit":"m.s-1","parameterCategory":2,"la1":30.2991,"la2":30.254,"lo1":-89.0895,"lo2":-89.0444,"dy":0.0017,"dx":0.0017,"nx":28,"ny":28,"refTime":"2023-10-24T09:00:00:Z","depth":"4","parameterNumber":3,"parameterNumberName":"V-component_of_CURRENTS"},"data":[0,0,0,0,0,0,0,0,0,0,0,0,0,0,0,0,0,0,0,0,0,0,0,0,0,0,0,0,0,0,0,0,0,0,0,0,0,0,0,0,0,0,0,0,0,0,0,0,0,0,0,0,0,0,0,0,0,0,-0.0497,-0.0497,0,-0.0489,-0.0489,-0.0489,-0.0488,-0.0488,-0.0487,-0.0487,-0.0452,-0.0451,-0.045,0,0,0,0,0,0,0,0,0,0,0,0,0,-0.048,-0.0481,-0.0497,-0.0497,-0.0496,-0.0489,-0.0489,-0.0489,-0.0488,-0.0488,-0.0487,-0.0487,-0.0452,-0.0451,-0.045,0,0,0,0,0,0,0,0,0,0,0,0,0,-0.0484,-0.0481,-0.0497,-0.0493,-0.0493,-0.0489,-0.0489,-0.0489,-0.0488,-0.0488,-0.0487,-0.0487,-0.0452,-0.0451,-0.045,-0.0447,0,0,-0.0446,-0.0446,0,0,0,0,0,0,0,0,-0.0484,-0.0485,-0.0494,-0.0493,-0.0493,-0.0487,-0.047,-0.0473,-0.0488,-0.0492,-0.0487,-0.0487,-0.046,-0.0458,-0.0461,-0.0445,-0.0444,-0.0446,-0.0446,-0.0445,-0.0445,0,0,0,0,0,0,0,-0.0483,-0.0485,-0.0496,-0.0494,-0.0493,-0.0481,-0.0482,-0.0471,-0.0478,-0.0492,-0.0491,-0.0487,-0.046,-0.0462,-0.046,-0.0443,-0.0446,-0.0445,-0.0444,-0.0444,-0.0438,-0.0439,0,0,0,0,0,0,-0.0482,-0.0485,-0.0496,-0.0496,-0.0485,-0.0482,-0.0483,-0.0491,-0.0479,-0.0477,-0.0487,-0.0487,-0.0464,-0.0461,-0.0458,-0.0472,-0.0445,-0.0444,-0.0443,-0.0438,-0.0438,-0.0439,0,0,0,0,0,0,-0.0482,-0.0484,-0.0497,-0.0487,-0.0488,-0.0482,-0.0492,-0.0491,-0.0497,-0.0475,-0.0473,-0.0493,-0.0464,-0.046,-0.0453,-0.0469,-0.0443,-0.0442,-0.0437,-0.0438,-0.0439,-0.0487,0,0,0,0,0,0,-0.0482,-0.0484,-0.0494,-0.0488,-0.0488,-0.0501,-0.0491,-0.0491,-0.0493,-0.0493,-0.048,-0.0476,-0.0463,-0.0455,-0.0452,-0.0467,-0.0441,-0.0436,-0.0437,-0.0438,-0.0484,-0.0489,-0.0493,0,0,0,0,0,-0.0481,-0.0487,-0.0495,-0.0497,-0.0502,-0.0501,-0.0501,-0.0497,-0.0494,-0.0501,-0.049,-0.0477,-0.046,-0.0454,-0.0451,-0.0466,-0.0436,-0.0437,-0.0438,-0.0482,-0.0488,-0.0493,0,0,0,0,0,0,-0.0473,-0.0487,-0.0496,-0.0504,-0.0508,-0.05,-0.0502,-0.0501,-0.05,-0.0498,-0.048,-0.0476,-0.048,-0.0464,-0.0458,-0.0468,-0.0447,-0.0448,-0.0482,-0.0487,-0.0492,-0.0496,-0.044,0,0,0,0,0,-0.048,-0.0499,-0.0502,-0.0511,-0.0513,-0.0512,-0.0512,-0.0511,-0.0505,-0.0505,-0.0497,-0.0487,-0.0483,-0.0477,-0.0471,-0.047,-0.0448,-0.0479,-0.0483,-0.0487,-0.0488,-0.0478,-0.0482,-0.0443,-0.0443,-0.0443,0,0,-0.0484,-0.0489,-0.0504,-0.0513,-0.0515,-0.0526,-0.0512,-0.0514,-0.0525,-0.05,-0.0511,-0.0503,-0.0487,-0.0493,-0.0492,-0.0479,-0.0483,-0.0489,-0.0492,-0.0491,-0.048,-0.0484,-0.0487,-0.0444,-0.0444,-0.0444,0,0,-0.0481,-0.0503,-0.0512,-0.0522,-0.0526,-0.0534,-0.0537,-0.0538,-0.0541,-0.0549,-0.0537,-0.054,-0.0529,-0.0527,-0.0522,-0.0545,-0.051,-0.0541,-0.0563,-0.0553,-0.0556,-0.0559,-0.0521,-0.0519,-0.0539,-0.0539,-0.0539,0,-0.0468,-0.0495,-0.0512,-0.0518,-0.0532,-0.0541,-0.0553,-0.0559,-0.056,-0.056,-0.0558,-0.0558,-0.055,-0.0556,-0.0566,-0.0557,-0.053,-0.0545,-0.0559,-0.0561,-0.0563,-0.0523,-0.0521,-0.0542,-0.0542,-0.0541,-0.0541,0,-0.0477,-0.0499,-0.0502,-0.0529,-0.055,-0.0559,-0.0578,-0.0593,-0.0602,-0.0602,-0.0612,-0.0607,-0.0606,-0.0608,-0.0593,-0.0603,-0.0572,-0.057,-0.0547,-0.057,-0.0526,-0.0523,-0.0545,-0.0544,-0.0544,-0.0543,0,0,-0.0431,-0.0492,-0.0492,-0.0515,-0.0558,-0.0569,-0.0604,-0.0624,-0.0637,-0.0645,-0.0655,-0.0663,-0.0658,-0.0652,-0.0641,-0.0634,-0.0623,-0.0605,-0.0603,-0.0568,-0.0574,-0.0472,-0.0458,-0.0619,-0.062,-0.062,-0.0533,0,-0.0422,-0.0447,-0.0485,-0.0524,-0.0549,-0.0587,-0.0618,-0.0643,-0.0665,-0.0677,-0.0673,-0.0681,-0.0674,-0.0677,-0.0672,-0.0638,-0.0619,-0.0645,-0.0556,-0.0553,-0.0461,-0.0454,-0.062,-0.0531,-0.053,-0.0529,-0.0529,0,-0.0416,-0.044,-0.0479,-0.0538,-0.0548,-0.0576,-0.0638,-0.0655,-0.0681,-0.0693,-0.0708,-0.0711,-0.0709,-0.0701,-0.0658,-0.067,-0.0626,-0.0596,-0.0592,-0.0478,-0.0446,-0.0506,-0.0523,-0.0524,-0.0524,-0.0524,-0.0525,0,-0.0396,-0.0433,-0.0471,-0.0492,-0.0559,-0.0582,-0.0606,-0.0656,-0.0671,-0.0698,-0.0715,-0.072,-0.071,-0.0683,-0.0625,-0.0643,-0.0552,-0.0573,-0.0436,-0.0427,-0.0526,-0.0524,-0.0536,-0.0536,-0.0537,-0.0537,-0.0537,0,-0.0387,-0.0412,-0.0461,-0.0484,-0.0522,-0.0565,-0.06,-0.063,-0.0663,-0.067,-0.071,-0.0713,-0.0705,-0.0661,-0.0618,-0.0496,-0.0545,-0.0428,-0.0399,-0.0545,-0.0547,-0.0522,-0.0522,-0.0534,-0.0534,-0.0535,-0.0535,0,-0.0386,-0.0413,-0.0453,-0.0506,-0.0523,-0.0547,-0.0592,-0.0612,-0.0643,-0.0658,-0.0668,-0.0689,-0.0622,-0.0586,-0.0514,-0.0461,-0.0378,-0.0319,-0.0446,-0.0427,-0.0264,-0.0267,-0.0178,-0.0173,-0.017,-0.0167,-0.0164,0,-0.0401,-0.0423,-0.0466,-0.0488,-0.0515,-0.0548,-0.0574,-0.0603,-0.0618,-0.0632,-0.0627,-0.0588,-0.0584,-0.0403,-0.0368,-0.0255,-0.024,-0.0197,-0.0267,-0.0246,-0.0228,-0.0237,-0.0245,-0.0158,-0.0157,-0.0156,-0.0155,0,-0.0438,-0.0444,-0.0475,-0.0502,-0.053,-0.0556,-0.0579,-0.0578,-0.0592,-0.0623,-0.0574,-0.0519,-0.0419,-0.0344,-0.0233,-0.0166,-0.0237,-0.016,-0.0168,-0.0234,-0.0222,-0.0209,-0.0221,-0.0143,-0.0145,-0.0146,-0.0146,0,-0.047,-0.0485,-0.0505,-0.0526,-0.0554,-0.0557,-0.0562,-0.0552,-0.0554,-0.0553,-0.052,-0.0458,-0.043,-0.029,-0.0198,-0.0107,-0.0107,-0.0108,-0.0119,-0.0133,-0.0148,-0.0129,0.0016,0,0,0,0,0,-0.0506,-0.0511,-0.053,-0.0548,-0.0563,-0.0571,-0.0573,-0.0569,-0.0562,-0.0514,-0.0514,-0.0421,-0.0281,-0.0241,-0.0128,-0.0142,-0.0099,-0.0006,-0.0107,-0.0073,-0.0087,-0.0104,0,0,0,0,0,0,-0.0534,-0.0552,-0.0535,-0.0556,-0.0564,-0.0579,-0.057,-0.056,-0.0521,-0.0506,-0.0431,-0.04,-0.0268,-0.0352,-0.0135,-0.0109,-0.0155,0.0049,0.0052,-0.0064,-0.0078,-0.0089,-0.0112,0,0,0,0,0]}]]